Погода в Арыкбалыке

Казахстан     52°57′13″N   68°12′18″E
темп.,
°C
ветер,
м/с
пор.,
м/с
влажн.,
%
обл.,
%
осадки,
мм/ч
давл.,
гПа
погр.,
м
2 марта, вт
вт200:00−20зюз22100100 0.1 101820
03:00−20юз2310095 0.0 101820
06:00−18юз239796 0.1 101874
09:00−17юз239799 0.2 1018107
12:00−14ююз359393 0.2 1017243
15:00−12юз469392 0.1 1016333
18:00−12юз489496 0.1 1015330
21:00−15юз5129694 0.0 1016286
3 марта, ср
ср300:00−17ююз7139697 0.1 1016304
03:00−18ююз71495100 0.0 1016309
06:00−19ююз8159699 0.0 1016308
09:00−17ююз91594100 0.0 1015338
12:00−13ююз101793100 0.1 1014440
15:00−9юз101791100 0.1 1013614
18:00−7юз101691100 0.4 1012773
21:00−5юз91792100 0.3 1010845
4 марта, чт
чт400:00−4юз91693100 0.6 1009822
03:00−4юз81594100 0.4 1008764
06:00−2ююз91694100 1.1 1006906
09:00−2ююз101793100 0.8 1005937
12:00−1юз111694100 1.3 10051028
15:00−1юз101596100 0.7 10041090
18:00−2юз91495100 1.6 10041048
21:00−3зюз81296100 1.1 1005701
5 марта, пт
пт500:00−8зюз61295100 1.4 1009462
03:00−12зюз61296100 0.1 1011266
06:00−14юз7129588 0.1 1014255
09:00−12юз9179156 0.0 1015380
12:00−9юз12219078 0.1 1014701
15:00−7юз132191100 0.4 1013819
18:00−5юз132190100 0.6 1013940
21:00−5юз122090100 0.3 10131013
6 марта, сб
сб600:00−6юз121991100 0.6 1014871
03:00−6юз111893100 0.7 1013767
06:00−6юз101793100 1.3 1013647
09:00−6юз9159299 0.3 1014590
12:00−4зюз81293100 0.4 1016678
15:00−3зюз71093100 0.3 1017736
18:00−4юз5892100 0.4 1017571
21:00−7ююз4996100 0.0 1017207